period_start,C,m1,H,J0,J1,J2,J3,J4,J5,JA,JB,JC,JD,JJ,JK,JN,#
2014-06-25 00:04:00,0.01,0.06,0.00,22.67,27.10,29.53,9.52,38.15,1003.94,2041.00,3451.39,3317.05,3606.02,500.11,491.10,10.52,0000 0000 0000 0000 000000
2014-06-25 00:09:01,0.00,0.06,0.00,22.70,27.10,29.52,9.47,38.20,1003.94,2041.00,3451.23,3317.02,3606.01,499.98,490.92,10.56,0000 0000 0000 0000 000000
2014-06-25 00:14:02,-0.00,0.06,0.00,22.72,27.10,29.52,9.47,38.11,1003.93,2041.00,3451.37,3317.06,3606.02,499.91,490.93,10.60,0000 0000 0000 0000 000000
2014-06-25 00:19:03,-0.01,0.06,0.00,22.72,27.11,29.52,9.44,38.06,1003.94,2041.00,3451.61,3317.22,3606.05,500.42,491.35,10.64,0000 0000 0000 0000 000000
2014-06-25 00:24:04,0.01,0.06,0.00,22.72,27.12,29.52,9.47,37.93,1003.95,2041.00,3451.41,3317.12,3606.02,500.03,490.98,10.69,0000 0000 0000 0000 000000
2014-06-25 00:29:05,0.00,0.06,0.00,22.74,27.12,29.53,9.30,37.86,1004.01,2041.00,3451.32,3317.05,3606.02,499.92,490.89,10.73,0000 0000 0000 0000 000000
2014-06-25 00:34:07,-0.00,0.06,0.00,22.75,27.12,29.53,9.37,37.96,1004.17,2041.00,3451.27,3317.04,3606.02,499.97,490.97,10.77,0000 0000 0000 0000 000000
2014-06-25 00:39:08,0.00,0.06,0.00,22.77,27.12,29.54,9.49,38.42,1004.21,2041.00,3451.14,3317.01,3606.00,500.02,491.12,10.81,0000 0000 0000 0000 000000
2014-06-25 00:44:09,0.00,0.06,0.00,22.78,27.12,29.55,9.44,38.53,1004.35,2041.00,3451.07,3317.01,3606.00,499.37,490.40,10.85,0000 0000 0000 0000 000000
2014-06-25 00:49:10,0.00,0.06,0.00,22.81,27.14,29.55,9.32,38.15,1004.39,2041.00,3451.03,3317.01,3606.00,500.05,491.12,10.90,0000 0000 0000 0000 000000
2014-06-25 00:54:11,0.00,0.06,0.00,22.82,27.15,29.56,9.45,38.17,1004.41,2041.00,3451.08,3317.01,3606.00,499.67,490.63,10.94,0000 0000 0000 0000 000000
2014-06-25 00:59:12,0.00,0.06,0.00,22.83,27.15,29.57,9.50,38.06,1004.41,2041.00,3451.02,3317.00,3606.00,500.32,491.35,10.98,0000 0000 0000 0000 000000
2014-06-25 01:04:12,0.00,0.06,0.00,22.82,27.15,29.58,9.55,38.22,1004.40,2041.00,3451.02,3317.00,3605.99,500.05,490.99,11.02,0000 0000 0000 0000 000000
2014-06-25 01:09:13,0.00,0.06,0.00,22.85,27.16,29.58,9.43,37.84,1004.40,2040.99,3451.02,3317.00,3605.99,500.38,491.27,11.06,0000 0000 0000 0000 000000
2014-06-25 01:14:14,0.00,0.06,0.00,22.88,27.17,29.59,9.43,38.30,1004.37,2040.99,3451.00,3317.00,3605.98,499.89,490.85,11.11,0000 0000 0000 0000 000000
2014-06-25 01:19:15,0.00,0.06,0.00,22.90,27.17,29.59,9.52,38.32,1004.40,2040.98,3451.00,3317.00,3605.96,499.91,490.92,11.15,0000 0000 0000 0000 000000
2014-06-25 01:24:16,0.00,0.06,0.00,22.91,27.18,29.60,9.47,38.33,1004.41,2040.99,3451.00,3316.98,3605.89,500.21,491.09,11.19,0000 0000 0000 0000 000000
2014-06-25 01:29:17,0.00,0.06,0.00,22.91,27.20,29.62,9.46,38.33,1004.41,2040.97,3451.00,3316.98,3605.73,499.87,490.69,11.23,0000 0000 0000 0000 000000
2014-06-25 01:34:18,-0.00,0.06,0.00,22.92,27.20,29.62,9.41,38.27,1004.41,2040.96,3450.99,3316.96,3605.56,499.73,490.70,11.27,0000 0000 0000 0000 000000
2014-06-25 01:39:19,-0.00,0.06,0.00,22.94,27.20,29.61,9.43,38.04,1004.41,2040.92,3450.98,3316.93,3605.30,499.67,490.64,11.31,0000 0000 0000 0000 000000
2014-06-25 01:44:20,0.01,0.06,0.00,22.96,27.22,29.63,9.43,38.06,1004.42,2040.92,3450.96,3316.85,3605.20,499.62,490.43,11.36,0000 0000 0000 0000 000000
2014-06-25 01:49:21,0.01,0.06,0.00,22.98,27.22,29.64,9.44,38.25,1004.45,2040.82,3450.95,3316.49,3605.03,499.96,490.74,11.40,0000 0000 0000 0000 000000
2014-06-25 01:54:23,-0.01,0.06,0.00,22.99,27.23,29.65,9.45,38.23,1004.54,2040.75,3450.94,3316.47,3605.02,499.90,490.74,11.44,0000 0000 0000 0000 000000
2014-06-25 01:59:24,0.00,0.06,0.00,23.02,27.25,29.66,9.50,38.39,1004.71,2040.59,3450.77,3316.19,3605.01,500.33,491.21,11.48,0000 0000 0000 0000 000000
2014-06-25 02:04:25,-0.01,0.06,0.00,23.04,27.25,29.66,9.38,38.29,1004.79,2040.56,3450.79,3316.21,3605.00,500.04,490.93,11.52,0000 0000 0000 0000 000000
2014-06-25 02:09:26,-0.03,0.06,0.00,23.05,27.27,29.68,9.46,38.25,1004.84,2040.18,3450.60,3316.05,3605.00,499.87,490.73,11.56,0000 0000 0000 0000 000000
2014-06-25 02:14:27,-0.00,0.06,0.00,23.08,27.27,29.69,9.39,38.45,1004.84,2040.10,3450.21,3316.02,3604.99,499.97,490.86,11.61,0000 0000 0000 0000 000000
2014-06-25 02:19:28,0.01,0.06,0.00,23.10,27.29,29.70,9.53,38.62,1004.83,2040.07,3450.07,3316.00,3604.98,500.22,491.02,11.65,0000 0000 0000 0000 000000
2014-06-25 02:24:29,-0.00,0.06,0.00,23.12,27.30,29.70,9.47,38.33,1004.86,2040.02,3450.03,3316.00,3604.95,500.06,490.86,11.69,0000 0000 0000 0000 000000
2014-06-25 02:29:30,0.00,0.06,0.00,23.15,27.31,29.72,9.42,38.34,1004.79,2040.02,3450.01,3315.99,3604.84,499.96,490.66,11.73,0000 0000 0000 0000 000000
2014-06-25 02:34:31,0.00,0.06,0.00,23.16,27.32,29.74,9.43,38.36,1004.86,2040.00,3450.01,3315.98,3604.51,499.85,490.51,11.77,0000 0000 0000 0000 000000
2014-06-25 02:39:32,0.00,0.06,0.00,23.17,27.34,29.75,9.35,38.38,1004.89,2040.00,3450.00,3315.97,3604.40,499.54,490.20,11.82,0000 0000 0000 0000 000000
2014-06-25 02:44:33,0.00,0.06,0.00,23.19,27.35,29.77,9.48,38.24,1004.89,2040.00,3450.00,3315.94,3604.09,500.17,490.68,11.86,0000 0000 0000 0000 000000
2014-06-25 02:49:34,0.00,0.06,0.00,23.22,27.37,29.77,9.43,38.12,1004.90,2040.00,3450.00,3315.79,3604.02,500.06,490.79,11.90,0000 0000 0000 0000 000000
2014-06-25 02:54:35,0.01,0.06,0.00,23.23,27.38,29.80,9.49,38.29,1004.90,2040.00,3449.99,3315.42,3604.00,499.80,490.49,11.94,0000 0000 0000 0000 000000
2014-06-25 02:59:37,-0.00,0.06,0.00,23.25,27.40,29.81,9.38,38.06,1004.90,2039.99,3449.96,3315.19,3604.00,499.99,490.66,11.98,0000 0000 0000 0000 000000
2014-06-25 03:04:38,0.00,0.06,0.00,23.26,27.41,29.82,9.52,38.17,1004.90,2039.99,3449.88,3315.09,3604.00,500.52,491.02,12.02,0000 0000 0000 0000 000000
2014-06-25 03:09:39,0.01,0.06,0.00,23.28,27.42,29.84,9.48,38.19,1004.90,2039.99,3449.48,3315.01,3603.99,499.86,490.24,12.07,0000 0000 0000 0000 000000
2014-06-25 03:14:40,0.00,0.06,0.00,23.32,27.45,29.86,9.42,38.22,1004.90,2039.97,3449.24,3315.00,3603.96,500.15,490.72,12.11,0000 0000 0000 0000 000000
2014-06-25 03:19:41,0.00,0.06,0.00,23.33,27.46,29.87,9.37,38.26,1004.91,2039.95,3449.05,3314.99,3603.41,499.79,490.30,12.15,0000 0000 0000 0000 000000
2014-06-25 03:24:42,-0.02,0.06,0.00,23.35,27.47,29.88,9.46,38.39,1004.91,2039.75,3449.01,3314.94,3603.10,500.19,490.34,12.19,0000 0000 0000 0000 000000
2014-06-25 03:29:43,0.00,0.06,0.00,23.37,27.50,29.90,9.47,38.31,1004.91,2039.69,3449.01,3314.94,3603.03,499.84,490.17,12.23,0000 0000 0000 0000 000000
2014-06-25 03:34:45,-0.04,0.06,0.00,23.40,27.51,29.90,9.48,38.25,1004.92,2039.36,3449.00,3314.72,3603.00,499.67,489.87,12.28,0000 0000 0000 0000 000000
2014-06-25 03:39:46,-0.00,0.06,0.00,23.42,27.53,29.92,9.43,38.15,1004.93,2039.13,3449.00,3314.29,3603.00,499.99,490.27,12.32,0000 0000 0000 0000 000000
2014-06-25 03:44:47,-0.00,0.06,0.00,23.45,27.55,29.94,9.45,38.20,1005.01,2039.08,3448.99,3314.11,3602.99,500.25,490.71,12.36,0000 0000 0000 0000 000000
2014-06-25 03:49:49,-0.00,0.06,0.00,23.46,27.57,29.96,9.46,38.08,1005.18,2039.04,3448.94,3314.02,3602.97,500.23,490.55,12.40,0000 0000 0000 0000 000000
2014-06-25 03:54:50,0.00,0.06,0.00,23.47,27.59,29.98,9.41,38.13,1005.30,2039.00,3448.86,3314.01,3602.92,499.99,490.13,12.44,0000 0000 0000 0000 000000
2014-06-25 03:59:51,0.01,0.06,0.00,23.50,27.60,30.00,9.51,38.12,1005.36,2039.00,3448.64,3314.00,3602.71,499.79,490.15,12.48,0000 0000 0000 0000 000000
2014-06-25 04:04:52,0.01,0.06,0.00,23.54,27.62,30.01,9.47,38.17,1005.39,2039.00,3448.22,3313.98,3602.17,500.22,490.53,12.53,0000 0000 0000 0000 000000
2014-06-25 04:09:53,0.00,0.06,0.00,23.55,27.64,30.03,9.46,38.36,1005.39,2038.99,3448.08,3313.96,3602.03,500.20,490.70,12.57,0000 0000 0000 0000 000000
2014-06-25 04:14:54,0.01,0.06,0.00,23.57,27.65,30.05,9.52,38.55,1005.40,2038.98,3448.00,3313.65,3602.00,500.14,490.54,12.61,0000 0000 0000 0000 000000
2014-06-25 04:19:55,0.01,0.06,0.00,23.59,27.67,30.07,9.36,38.33,1005.42,2038.97,3448.00,3313.28,3602.00,500.03,490.24,12.65,0000 0000 0000 0000 000000
2014-06-25 04:24:56,-0.00,0.06,0.00,23.62,27.70,30.08,9.46,38.17,1005.42,2038.94,3447.99,3313.06,3601.99,499.76,490.02,12.69,0000 0000 0000 0000 000000
2014-06-25 04:29:58,0.00,0.06,0.00,23.64,27.71,30.10,9.43,38.27,1005.41,2038.88,3447.97,3313.02,3601.83,500.27,490.19,12.74,0000 0000 0000 0000 000000
2014-06-25 04:34:59,-0.03,0.06,0.00,23.68,27.73,30.12,9.45,38.58,1005.41,2038.54,3447.84,3313.00,3601.34,500.24,490.29,12.78,0000 0000 0000 0000 000000
2014-06-25 04:40:00,-0.02,0.06,0.00,23.69,27.75,30.14,9.46,38.52,1005.44,2038.29,3447.45,3313.00,3601.07,500.06,490.17,12.82,0000 0000 0000 0000 000000
2014-06-25 04:45:01,-0.01,0.06,0.00,23.72,27.76,30.15,9.46,38.51,1005.43,2038.18,3447.36,3312.98,3601.04,500.19,490.24,12.86,0000 0000 0000 0000 000000
2014-06-25 04:50:02,0.01,0.06,0.00,23.74,27.79,30.18,9.46,38.61,1005.44,2038.03,3447.06,3312.78,3601.00,500.15,490.32,12.90,0000 0000 0000 0000 000000
2014-06-25 04:55:03,0.01,0.06,0.00,23.74,27.80,30.20,9.49,38.48,1005.52,2038.01,3447.01,3312.47,3600.97,500.66,490.70,12.94,0000 0000 0000 0000 000000
2014-06-25 05:00:04,0.00,0.06,0.00,23.76,27.82,30.21,9.40,38.45,1005.67,2038.00,3447.00,3312.13,3600.96,499.49,489.60,12.99,0000 0000 0000 0000 000000
2014-06-25 05:05:05,0.00,0.06,0.00,23.77,27.85,30.23,9.47,38.30,1005.62,2038.00,3446.99,3312.02,3600.79,499.96,490.09,13.03,0000 0000 0000 0000 000000
2014-06-25 05:10:06,0.01,0.06,0.00,23.79,27.86,30.25,9.41,38.03,1005.50,2038.00,3446.94,3312.01,3600.25,500.14,490.26,13.07,0000 0000 0000 0000 000000
2014-06-25 05:15:08,0.01,0.06,0.00,23.80,27.87,30.27,9.43,38.66,1005.50,2037.99,3446.38,3312.00,3600.01,499.90,489.88,13.11,0000 0000 0000 0000 000000
2014-06-25 05:20:09,-0.00,0.06,0.00,23.83,27.90,30.29,9.42,38.55,1005.66,2037.95,3446.10,3311.97,3600.00,500.04,490.00,13.15,0000 0000 0000 0000 000000
2014-06-25 05:25:10,0.00,0.06,0.00,23.86,27.91,30.30,9.45,38.54,1005.77,2037.97,3446.04,3311.98,3600.00,500.15,490.17,13.20,0000 0000 0000 0000 000000
2014-06-25 05:30:11,-0.00,0.06,0.00,23.87,27.93,30.33,9.44,38.28,1005.79,2037.91,3446.02,3311.79,3600.00,499.85,489.83,13.24,0000 0000 0000 0000 000000
2014-06-25 05:35:12,-0.01,0.06,0.00,23.88,27.95,30.34,9.41,38.35,1005.85,2037.76,3446.00,3311.39,3599.92,499.85,489.80,13.28,0000 0000 0000 0000 000000
2014-06-25 05:40:13,-0.02,0.06,0.00,23.90,27.96,30.35,9.41,38.08,1005.87,2037.42,3446.00,3311.06,3599.47,499.84,490.07,13.32,0000 0000 0000 0000 000000
2014-06-25 05:45:14,-0.01,0.06,0.00,23.91,27.98,30.37,9.45,38.33,1005.87,2037.12,3445.97,3311.00,3599.07,500.17,490.25,13.36,0000 0000 0000 0000 000000
2014-06-25 05:50:15,-0.00,0.06,0.00,23.93,28.00,30.39,9.42,38.33,1005.87,2037.07,3445.88,3311.00,3599.01,500.18,490.25,13.41,0000 0000 0000 0000 000000
2014-06-25 05:55:16,0.00,0.06,0.00,23.96,28.02,30.40,9.45,38.23,1005.87,2037.02,3445.59,3310.98,3599.00,500.33,490.17,13.45,0000 0000 0000 0000 000000
2014-06-25 06:00:18,0.00,0.06,0.00,23.98,28.03,30.42,9.40,38.33,1005.87,2037.00,3445.24,3310.93,3598.99,499.76,489.62,13.49,0000 0000 0000 0000 000000
2014-06-25 06:05:19,0.01,0.06,0.00,23.99,28.05,30.44,9.42,38.53,1005.87,2037.00,3445.07,3310.79,3598.96,499.83,489.74,13.53,0000 0000 0000 0000 000000
2014-06-25 06:10:20,0.00,0.06,0.00,23.99,28.07,30.45,9.47,38.42,1005.88,2037.00,3445.04,3310.55,3598.94,499.84,489.69,13.57,0000 0000 0000 0000 000000
2014-06-25 06:15:20,0.02,0.06,0.00,24.01,28.08,30.46,9.48,38.42,1005.89,2037.00,3445.01,3310.09,3598.58,500.01,489.70,13.61,0000 0000 0000 0000 000000
2014-06-25 06:20:21,0.00,0.06,0.00,24.02,28.10,30.48,9.52,38.17,1006.01,2036.99,3445.00,3310.03,3598.20,500.69,490.45,13.66,0000 0000 0000 0000 000000
2014-06-25 06:25:22,0.00,0.06,0.00,24.02,28.12,30.50,9.43,37.98,1006.28,2036.99,3445.00,3310.00,3598.06,500.19,490.47,13.70,0000 0000 0000 0000 000000
2014-06-25 06:30:23,-0.00,0.06,0.00,24.03,28.13,30.52,9.50,38.26,1006.31,2036.96,3444.99,3310.00,3598.00,500.16,490.04,13.74,0000 0000 0000 0000 000000
2014-06-25 06:35:24,0.00,0.06,0.00,24.06,28.15,30.53,9.48,38.27,1006.35,2036.95,3444.97,3310.00,3598.01,500.43,490.24,13.78,0000 0000 0000 0000 000000
2014-06-25 06:40:25,-0.01,0.06,0.00,24.07,28.16,30.54,9.47,38.59,1006.36,2036.85,3444.80,3309.99,3598.00,499.91,490.01,13.82,0000 0000 0000 0000 000000
2014-06-25 06:45:26,0.01,0.06,0.00,24.07,28.17,30.56,9.34,38.51,1006.36,2036.75,3444.39,3309.97,3597.98,499.76,489.75,13.86,0000 0000 0000 0000 000000
2014-06-25 06:50:27,-0.04,0.06,0.00,24.09,28.19,30.58,9.43,38.42,1006.36,2036.29,3444.09,3309.59,3597.81,500.57,490.38,13.91,0000 0000 0000 0000 000000
2014-06-25 06:55:28,0.01,0.06,0.00,24.10,28.20,30.60,9.52,38.73,1006.36,2036.15,3444.02,3309.42,3597.76,500.07,489.86,13.95,0000 0000 0000 0000 000000
2014-06-25 07:00:29,0.00,0.06,0.00,24.11,28.22,30.60,9.40,38.49,1006.36,2036.06,3444.02,3309.17,3597.34,500.07,489.93,13.99,0000 0000 0000 0000 000000
2014-06-25 07:05:31,0.00,0.06,0.00,24.13,28.23,30.62,9.39,38.49,1006.36,2036.03,3444.00,3309.04,3597.08,499.32,489.15,14.03,0000 0000 0000 0000 000000
2014-06-25 07:10:32,0.00,0.06,0.00,24.17,28.25,30.63,9.45,38.54,1006.36,2036.01,3444.00,3309.00,3597.01,500.35,489.98,14.07,0000 0000 0000 0000 000000
2014-06-25 07:15:33,0.00,0.06,0.00,24.18,28.26,30.64,9.45,38.45,1006.36,2036.00,3443.99,3309.00,3597.00,500.27,490.00,14.12,0000 0000 0000 0000 000000
2014-06-25 07:20:34,0.00,0.06,0.00,24.18,28.27,30.66,9.43,38.40,1006.37,2036.00,3443.98,3309.00,3597.00,500.04,489.62,14.16,0000 0000 0000 0000 000000
2014-06-25 07:25:35,0.00,0.06,0.00,24.19,28.29,30.68,9.44,38.48,1006.40,2036.00,3443.97,3308.99,3596.99,499.83,489.71,14.20,0000 0000 0000 0000 000000
2014-06-25 07:30:36,0.00,0.06,0.00,24.20,28.30,30.69,9.46,38.71,1006.38,2036.00,3443.93,3308.97,3596.97,500.43,490.12,14.24,0000 0000 0000 0000 000000
2014-06-25 07:35:37,0.00,0.06,0.00,24.21,28.32,30.70,9.42,38.69,1006.38,2036.00,3443.73,3308.96,3596.96,499.92,489.52,14.28,0000 0000 0000 0000 000000
2014-06-25 07:40:38,0.02,0.06,0.00,24.21,28.33,30.72,9.44,38.73,1006.38,2035.99,3443.40,3308.75,3596.73,500.07,489.74,14.32,0000 0000 0000 0000 000000
2014-06-25 07:45:39,0.00,0.06,0.00,24.23,28.35,30.73,9.50,38.79,1006.41,2035.98,3443.16,3308.48,3596.45,500.34,490.01,14.37,0000 0000 0000 0000 000000
2014-06-25 07:50:40,0.01,0.06,0.00,24.25,28.35,30.74,9.39,38.73,1006.55,2035.98,3443.09,3308.32,3596.29,499.51,489.01,14.41,0000 0000 0000 0000 000000
2014-06-25 07:55:42,0.01,0.06,0.00,24.23,28.37,30.76,9.47,38.73,1006.60,2035.97,3443.01,3308.06,3596.05,500.29,489.98,14.45,0000 0000 0000 0000 000000
2014-06-25 08:00:43,0.00,0.06,0.00,24.27,28.38,30.77,9.40,38.46,1006.75,2035.95,3443.00,3308.01,3596.02,500.11,489.82,14.49,0000 0000 0000 0000 000000
2014-06-25 08:05:44,-0.00,0.06,0.00,24.28,28.40,30.78,9.43,38.52,1006.82,2035.89,3443.00,3308.00,3596.00,499.47,489.30,14.53,0000 0000 0000 0000 000000
2014-06-25 08:10:45,-0.03,0.06,0.00,24.27,28.40,30.79,9.47,38.57,1006.76,2035.65,3442.99,3308.00,3595.99,499.73,489.51,14.58,0000 0000 0000 0000 000000
2014-06-25 08:15:46,-0.01,0.06,0.00,24.29,28.42,30.81,9.44,38.49,1006.82,2035.44,3442.98,3307.98,3595.97,500.46,490.11,14.62,0000 0000 0000 0000 000000
2014-06-25 08:20:47,-0.02,0.06,0.00,24.29,28.42,30.82,9.41,38.42,1006.84,2035.28,3442.97,3307.96,3595.92,499.61,489.48,14.66,0000 0000 0000 0000 000000
2014-06-25 08:25:48,0.00,0.06,0.00,24.30,28.44,30.82,9.45,38.54,1006.83,2035.11,3442.82,3307.80,3595.70,499.79,489.40,14.70,0000 0000 0000 0000 000000
2014-06-25 08:30:49,0.02,0.06,0.00,24.30,28.45,30.84,9.40,38.35,1006.84,2035.02,3442.32,3307.36,3595.17,499.86,489.80,14.74,0000 0000 0000 0000 000000
2014-06-25 08:35:50,0.01,0.06,0.00,24.32,28.46,30.85,9.37,38.52,1006.77,2035.04,3442.17,3307.22,3595.07,499.97,489.63,14.78,0000 0000 0000 0000 000000
2014-06-25 08:40:51,0.00,0.06,0.00,24.31,28.47,30.87,9.44,38.51,1006.81,2035.02,3442.07,3307.06,3595.03,499.84,489.70,14.83,0000 0000 0000 0000 000000
2014-06-25 08:45:52,0.00,0.06,0.00,24.29,28.47,30.87,9.45,38.42,1006.85,2035.00,3442.01,3307.03,3595.00,499.61,489.43,14.87,0000 0000 0000 0000 000000
2014-06-25 08:50:54,0.00,0.06,0.00,24.31,28.50,30.88,9.44,38.33,1006.85,2035.00,3442.02,3307.01,3595.00,499.97,489.77,14.91,0000 0000 0000 0000 000000
2014-06-25 08:55:55,0.00,0.06,0.00,24.32,28.50,30.90,9.40,38.47,1006.85,2035.01,3442.01,3307.01,3595.00,499.84,489.67,14.95,0000 0000 0000 0000 000000
2014-06-25 09:00:56,0.00,0.06,0.00,24.32,28.51,30.91,9.45,38.52,1006.85,2035.00,3442.00,3307.00,3595.00,500.18,489.96,14.99,0000 0000 0000 0000 000000
2014-06-25 09:05:57,0.00,0.06,0.00,24.32,28.52,30.92,9.39,38.45,1006.86,2035.00,3442.00,3307.00,3594.99,499.71,489.48,15.04,0000 0000 0000 0000 000000
2014-06-25 09:10:58,0.00,0.06,0.00,24.35,28.52,30.93,9.43,38.33,1006.86,2035.00,3441.99,3306.99,3594.96,500.25,489.89,15.08,0000 0000 0000 0000 000000
2014-06-25 09:15:59,0.00,0.06,0.00,24.34,28.53,30.92,9.46,38.45,1006.87,2035.00,3441.98,3306.96,3594.85,500.08,489.71,15.12,0000 0000 0000 0000 000000
2014-06-25 09:21:00,0.01,0.06,0.00,24.34,28.55,30.94,9.47,38.27,1006.91,2034.99,3441.91,3306.85,3594.35,500.18,489.98,15.16,0000 0000 0000 0000 000000
2014-06-25 09:26:02,-0.00,0.06,0.00,24.34,28.55,30.95,9.42,38.39,1007.12,2034.99,3441.91,3306.92,3594.40,499.96,489.82,15.20,0000 0000 0000 0000 000000
2014-06-25 09:31:03,0.01,0.06,0.00,24.33,28.55,30.96,9.33,38.43,1007.19,2034.98,3441.89,3306.70,3594.16,499.49,489.41,15.24,0000 0000 0000 0000 000000
2014-06-25 09:36:04,0.01,0.06,0.00,24.33,28.57,30.96,9.49,38.38,1007.06,2034.99,3441.75,3306.57,3594.08,499.49,489.41,15.29,0000 0000 0000 0000 000000
2014-06-25 09:41:05,0.01,0.06,0.00,24.32,28.57,30.96,9.43,38.26,1006.96,2034.97,3441.45,3306.19,3594.02,500.03,489.83,15.33,0000 0000 0000 0000 000000
2014-06-25 09:46:06,0.00,0.06,0.00,24.33,28.57,30.97,9.51,38.35,1006.89,2034.99,3441.41,3306.13,3594.01,500.21,489.95,15.37,0000 0000 0000 0000 000000
2014-06-25 09:51:07,-0.00,0.06,0.00,24.34,28.58,30.98,9.38,38.13,1006.99,2034.96,3441.33,3306.11,3594.01,500.00,489.79,15.41,0000 0000 0000 0000 000000
2014-06-25 09:56:08,0.00,0.06,0.00,24.34,28.60,30.99,9.41,38.16,1007.13,2034.97,3441.18,3306.05,3594.00,500.15,489.91,15.45,0000 0000 0000 0000 000000
2014-06-25 10:01:10,-0.00,0.06,0.00,24.35,28.60,30.99,9.45,38.26,1007.24,2034.94,3441.08,3306.03,3594.00,499.99,489.92,15.50,0000 0000 0000 0000 000000
2014-06-25 10:06:11,-0.00,0.06,0.00,24.34,28.60,31.00,9.40,38.41,1007.31,2034.93,3441.07,3306.01,3594.00,499.91,489.84,15.54,0000 0000 0000 0000 000000
2014-06-25 10:11:12,-0.00,0.06,0.00,24.33,28.60,31.00,9.43,38.33,1007.24,2034.92,3441.02,3306.00,3593.98,499.81,489.85,15.58,0000 0000 0000 0000 000000
2014-06-25 10:16:13,-0.01,0.06,0.00,24.33,28.61,31.01,9.47,38.28,1007.23,2034.85,3441.01,3306.00,3593.97,499.89,489.80,15.62,0000 0000 0000 0000 000000
2014-06-25 10:21:14,-0.00,0.06,0.00,24.31,28.62,31.01,9.42,38.12,1007.06,2034.80,3441.00,3306.00,3593.96,499.92,489.84,15.66,0000 0000 0000 0000 000000
2014-06-25 10:26:15,-0.00,0.06,0.00,24.31,28.62,31.02,9.40,38.18,1007.00,2034.74,3441.01,3306.00,3593.97,499.91,489.67,15.70,0000 0000 0000 0000 000000
2014-06-25 10:31:17,0.01,0.06,0.00,24.31,28.62,31.02,9.44,38.29,1007.07,2034.83,3441.00,3306.00,3593.97,499.81,489.66,15.75,0000 0000 0000 0000 000000
2014-06-25 10:36:18,-0.01,0.06,0.00,24.31,28.62,31.02,9.44,38.16,1007.16,2034.70,3441.00,3306.00,3593.95,500.08,490.19,15.79,0000 0000 0000 0000 000000
2014-06-25 10:41:19,-0.02,0.06,0.00,24.31,28.62,31.02,9.44,38.14,1007.11,2034.56,3441.00,3306.00,3593.89,499.78,489.57,15.83,0000 0000 0000 0000 000000
2014-06-25 10:46:20,0.01,0.06,0.00,24.31,28.62,31.03,9.47,38.13,1007.20,2034.56,3441.00,3305.99,3593.89,500.03,489.92,15.87,0000 0000 0000 0000 000000
2014-06-25 10:51:21,0.01,0.06,0.00,24.31,28.62,31.03,9.44,38.09,1007.25,2034.52,3441.00,3305.99,3593.84,500.19,490.15,15.91,0000 0000 0000 0000 000000
2014-06-25 10:56:22,-0.03,0.06,0.00,24.28,28.63,31.03,9.41,38.10,1007.29,2034.40,3441.00,3305.98,3593.75,499.77,489.77,15.96,0000 0000 0000 0000 000000
2014-06-25 11:01:23,0.01,0.06,0.00,24.28,28.63,31.03,9.41,38.15,1007.34,2034.31,3440.99,3305.98,3593.52,499.84,490.01,16.00,0000 0000 0000 0000 000000
2014-06-25 11:06:24,0.01,0.06,0.00,24.28,28.63,31.03,9.51,38.17,1007.34,2034.35,3440.99,3305.98,3593.35,500.35,490.26,16.04,0000 0000 0000 0000 000000
2014-06-25 11:11:25,-0.01,0.06,0.00,24.26,28.62,31.04,9.46,38.28,1007.34,2034.41,3440.99,3305.98,3593.29,499.60,489.80,16.08,0000 0000 0000 0000 000000
2014-06-25 11:16:26,0.02,0.06,0.00,24.25,28.62,31.05,9.42,38.32,1007.35,2034.57,3440.99,3305.97,3593.42,500.31,490.32,16.12,0000 0000 0000 0000 000000
2014-06-25 11:21:27,-0.02,0.06,0.00,24.25,28.62,31.03,9.46,38.23,1007.34,2034.42,3440.98,3305.98,3593.32,500.24,490.42,16.16,0000 0000 0000 0000 000000
2014-06-25 11:26:28,-0.01,0.06,0.00,24.24,28.62,31.04,9.41,38.26,1007.35,2034.32,3440.98,3305.98,3593.21,499.83,489.87,16.21,0000 0000 0000 0000 000000
2014-06-25 11:31:29,0.03,0.06,0.00,24.24,28.62,31.04,9.46,38.40,1007.37,2034.39,3440.98,3305.96,3593.16,499.96,490.19,16.25,0000 0000 0000 0000 000000
2014-06-25 11:36:30,-0.02,0.06,0.00,24.21,28.62,31.04,9.44,38.34,1007.38,2034.28,3440.97,3305.94,3593.12,500.19,490.38,16.29,0000 0000 0000 0000 000000
2014-06-25 11:41:32,-0.01,0.06,0.00,24.20,28.62,31.03,9.44,38.25,1007.35,2034.11,3440.98,3305.94,3593.05,499.78,489.96,16.33,0000 0000 0000 0000 000000
2014-06-25 11:46:32,0.03,0.06,0.00,24.18,28.62,31.03,9.48,38.22,1007.36,2034.31,3440.98,3305.96,3593.20,500.31,490.44,16.37,0000 0000 0000 0000 000000
2014-06-25 11:51:34,-0.00,0.06,0.00,24.16,28.61,31.03,9.40,38.17,1007.48,2034.36,3440.98,3305.98,3593.19,500.00,490.14,16.42,0000 0000 0000 0000 000000
2014-06-25 11:56:35,0.02,0.06,0.00,24.17,28.60,31.03,9.37,38.19,1007.63,2034.56,3440.99,3305.98,3593.40,499.75,490.20,16.46,0000 0000 0000 0000 000000
2014-06-25 12:01:36,0.00,0.06,0.00,24.16,28.60,31.02,9.45,37.86,1007.47,2034.55,3440.98,3305.98,3593.53,500.00,490.35,16.50,0000 0000 0000 0000 000000
2014-06-25 12:06:38,0.02,0.06,0.00,24.15,28.60,31.02,9.47,37.99,1007.58,2034.85,3440.99,3305.99,3593.86,500.30,490.60,16.54,0000 0000 0000 0000 000000
2014-06-25 12:11:39,-0.01,0.06,0.00,24.13,28.60,31.01,9.51,38.04,1007.73,2034.79,3440.99,3305.99,3593.82,500.28,490.81,16.58,0000 0000 0000 0000 000000
2014-06-25 12:16:40,0.01,0.06,0.00,24.12,28.59,31.01,9.42,38.13,1007.73,2034.90,3440.99,3306.00,3593.94,499.94,490.44,16.62,0000 0000 0000 0000 000000
2014-06-25 12:21:41,0.00,0.06,0.00,24.10,28.57,31.00,9.48,38.23,1007.76,2034.93,3440.99,3306.00,3593.97,500.30,490.75,16.67,0000 0000 0000 0000 000000
2014-06-25 12:26:43,-0.00,0.06,0.00,24.08,28.57,31.00,9.49,38.07,1007.65,2034.90,3440.99,3306.00,3593.92,500.06,490.62,16.71,0000 0000 0000 0000 000000
2014-06-25 12:31:44,0.00,0.06,0.00,24.09,28.57,30.98,9.40,38.02,1007.72,2034.94,3440.99,3306.00,3593.97,499.82,490.32,16.75,0000 0000 0000 0000 000000
2014-06-25 12:36:45,-0.00,0.07,0.00,24.06,28.57,30.98,9.43,37.72,1007.81,2034.95,3440.99,3306.00,3593.97,500.20,490.92,16.79,0000 0000 0000 0000 000000
2014-06-25 12:41:46,0.00,0.07,0.00,24.04,28.56,30.98,9.47,38.06,1007.82,2034.95,3440.99,3306.00,3593.98,499.75,490.39,16.83,0000 0000 0000 0000 000000
2014-06-25 12:46:48,0.00,0.07,0.00,24.04,28.55,30.97,9.44,37.98,1007.83,2034.96,3441.00,3306.00,3593.98,500.12,490.89,16.88,0000 0000 0000 0000 000000
2014-06-25 12:51:49,-0.00,0.07,0.00,24.03,28.55,30.96,9.42,37.97,1007.83,2034.98,3441.02,3306.01,3593.99,499.72,490.36,16.92,0000 0000 0000 0000 000000
2014-06-25 12:56:50,-0.00,0.07,0.00,24.01,28.54,30.96,9.47,38.13,1007.83,2034.97,3441.03,3306.02,3593.99,500.24,490.76,16.96,0000 0000 0000 0000 000000
2014-06-25 13:01:50,0.00,0.07,0.00,24.01,28.52,30.95,9.47,38.17,1007.83,2034.98,3441.02,3306.04,3593.99,500.37,491.09,17.00,0000 0000 0000 0000 000000